RH
68 68 71 71 72 71 73 72 66 69 73 72 73 69 63 62 60 57 61 65 66 66 66 63 62 65 69 71 73 69 63 62 66 70 75 81 83 81 80 79 81 80 77 75 78 80 77 74 76 77 75 75 74 71 68 65 63 61 62 64 66 69 72 76 81 75 65 66 72 72 75 81 82 80 80 79 77 77 77 79 80 78 78 79 75
73 76 77 72 72 70 69 73 72 70 71 75 74 66 59 60 62 63 64 65 67 68 68 67 65 65 67 68 67 68 72 78 83 81 77 79 81 80 79 80 82 82 81 79 80 80 77 74 76 78 76 71 64 61 60 57 56 57 56 57 57 59 63 68 74 75 70 67 73 76 75 78 83 83 83 81 78 78 78 77 77 78 79 80 78
67 74 77 75 77 72 64 64 72 78 80 79 73 66 62 61 63 63 65 69 71 71 73 73 70 68 68 68 68 73 78 81 80 79 78 81 84 85 85 84 83 84 83 82 81 80 77 76 76 77 77 74 69 67 65 60 57 55 54 53 53 55 60 66 70 74 73 70 74 81 81 80 81 82 82 82 80 79 79 78 79 81 81 80 79
55 62 72 79 79 76 71 69 74 79 81 79 74 68 66 65 64 66 70 73 73 75 78 75 71 71 73 74 72 71 73 75 76 77 80 83 82 80 83 85 87 88 85 82 82 81 79 79 79 78 77 77 76 74 73 70 65 60 58 57 56 55 56 58 61 64 67 67 67 75 81 80 79 80 80 82 83 84 83 81 80 82 82 78 76
55 57 67 76 76 76 77 76 77 79 80 80 76 69 67 66 67 70 74 75 76 79 80 76 75 76 75 75 73 72 73 75 74 73 73 75 74 71 73 78 81 83 83 82 82 82 81 80 78 76 76 79 80 78 75 73 69 65 65 64 63 62 59 58 61 64 67 69 67 69 74 75 79 82 80 79 81 83 83 81 77 75 72 70 69
65 65 71 77 77 77 78 76 78 79 80 81 79 75 71 68 66 69 73 73 73 77 79 79 81 78 76 78 79 78 76 73 72 73 72 70 69 69 71 75 79 85 87 82 78 80 82 80 77 73 74 79 83 84 82 80 77 74 73 72 71 73 71 67 67 69 72 73 72 71 70 70 76 79 77 77 79 80 81 80 77 73 71 71 72
75 75 80 82 80 79 78 78 81 82 81 79 74 73 72 67 63 64 67 70 70 71 75 78 81 79 79 79 76 73 73 72 70 70 71 72 72 73 77 80 84 88 83 70 63 66 71 74 78 80 80 82 83 85 85 84 84 83 82 80 78 78 77 74 72 73 74 74 74 75 75 73 76 77 76 77 80 82 83 82 80 78 80 83 82
80 79 82 82 80 82 80 77 79 77 72 65 60 61 62 60 60 60 62 66 66 67 69 72 73 73 72 71 68 66 66 65 61 58 64 74 74 74 77 80 82 80 72 62 54 48 45 50 60 70 80 85 86 88 89 87 89 89 87 84 82 80 79 77 77 77 77 78 79 79 78 79 81 80 79 80 81 80 79 78 77 76 80 85 86
79 79 83 82 80 84 80 72 72 71 65 59 58 59 59 59 60 60 60 61 62 64 65 65 64 63 62 62 63 66 70 71 67 63 69 76 75 74 74 74 74 73 72 72 66 49 37 44 54 58 66 75 79 82 82 79 80 82 79 78 77 77 76 75 74 73 74 77 78 76 76 78 79 80 80 81 82 81 79 79 82 81 81 85 86
78 79 83 84 82 83 78 68 66 69 66 59 57 58 59 59 59 58 58 59 60 60 58 58 61 64 66 67 68 73 81 85 82 78 78 77 74 74 73 73 74 76 77 80 78 61 47 59 77 77 71 69 68 70 74 75 75 76 76 75 75 77 78 75 71 68 69 73 73 71 72 72 69 70 77 81 83 84 83 84 89 89 87 86 84
77 76 80 84 83 83 78 69 69 72 68 61 61 63 62 59 56 55 56 55 54 54 55 61 67 70 74 78 79 81 85 84 81 78 77 76 74 73 74 75 76 79 81 80 80 76 67 71 85 88 85 82 78 74 76 78 80 81 81 81 81 83 82 79 76 73 73 76 76 76 77 74 63 59 66 75 79 82 84 86 89 90 91 91 85
70 73 81 85 84 83 77 70 72 73 67 62 63 66 63 59 57 58 56 53 51 51 55 62 69 75 80 83 84 83 83 81 76 74 73 73 73 72 73 75 74 76 80 77 75 80 81 78 77 73 74 81 84 83 81 80 79 79 80 81 80 79 77 76 77 78 77 77 79 80 80 78 71 62 60 64 68 70 74 79 83 85 88 90 85
67 77 83 81 80 83 79 72 71 70 64 58 56 56 56 56 56 55 53 51 49 49 55 63 73 81 84 84 83 82 80 76 73 72 72 71 72 73 73 74 74 75 78 77 75 80 84 84 83 79 74 76 81 81 79 78 76 76 78 81 81 79 78 78 79 81 81 80 79 78 76 76 76 69 64 64 66 67 67 68 76 82 82 82 79
73 80 80 76 77 82 80 72 69 67 61 56 52 53 55 53 52 53 53 52 53 57 66 77 83 85 84 82 82 81 78 75 74 74 74 73 72 73 74 76 78 80 81 80 79 79 80 82 86 88 86 83 82 80 77 77 80 81 82 82 81 78 76 75 76 76 78 81 83 83 81 82 82 78 74 72 73 76 75 72 74 76 75 76 74
75 74 75 76 79 83 81 74 69 66 61 56 55 55 55 52 53 58 60 61 67 74 79 85 85 82 80 80 79 77 75 75 76 77 77 76 76 76 78 81 84 85 85 83 78 73 76 83 87 88 89 89 87 86 85 87 90 89 86 83 80 76 71 68 68 69 71 76 82 84 83 83 85 84 82 82 82 84 85 82 79 78 80 82 78
76 70 72 78 82 85 82 74 68 61 55 52 53 54 57 58 60 65 69 72 78 83 83 83 81 78 76 76 76 77 77 78 79 79 79 79 80 81 81 83 85 85 82 78 73 69 76 87 90 87 87 87 87 88 90 93 94 94 91 87 82 80 77 71 69 70 69 68 70 70 70 72 77 80 81 81 84 86 89 89 88 89 91 89 85
76 70 74 80 85 86 81 71 63 54 46 46 50 55 61 66 67 71 76 79 81 82 80 77 76 74 73 74 76 77 78 79 78 77 76 76 78 80 82 84 87 86 80 75 72 73 77 82 82 83 86 89 89 92 94 96 97 96 94 90 86 84 81 76 71 70 72 73 73 73 70 67 68 74 79 78 77 79 84 86 86 89 90 85 82
74 68 72 78 82 83 75 64 56 48 45 47 51 56 62 68 71 74 78 81 80 79 77 75 74 74 73 74 75 75 76 79 79 79 79 77 78 79 81 84 87 86 82 78 77 78 79 79 79 85 91 94 94 93 94 94 95 95 94 92 91 87 83 80 78 76 76 78 80 81 79 70 63 68 76 78 76 77 80 78 76 81 85 83 81
70 66 72 79 81 77 67 58 52 49 50 54 59 65 71 75 79 80 80 80 78 75 73 74 76 76 75 75 76 78 81 83 83 85 88 88 87 86 84 85 86 85 84 82 80 80 81 80 81 86 93 96 96 96 96 96 96 96 95 94 93 90 87 86 87 85 82 81 80 78 75 67 60 64 73 79 81 83 83 80 77 79 81 82 81
69 72 76 78 77 70 58 50 47 50 58 65 70 78 83 83 83 80 76 75 74 73 73 76 80 80 79 80 81 82 85 87 87 89 93 94 93 91 88 86 86 86 86 86 85 84 82 82 84 88 92 92 92 93 93 94 96 98 98 98 96 93 90 91 91 91 90 89 85 81 75 66 58 57 61 68 75 80 80 78 78 79 79 80 79
76 77 75 73 68 57 47 45 51 62 72 76 75 80 85 84 79 74 71 71 74 77 79 82 83 81 81 82 82 81 82 85 87 89 91 93 93 93 92 90 89 90 90 88 88 87 86 86 87 89 89 86 85 85 84 86 92 98 98 99 97 95 94 95 93 91 91 89 85 81 77 72 65 59 55 56 61 69 75 78 77 76 78 78 77
82 77 70 68 60 47 49 62 73 78 80 79 77 78 78 76 71 68 68 71 75 79 82 83 81 79 79 81 81 80 80 82 85 88 89 92 94 94 93 92 92 93 92 90 90 90 90 90 88 89 91 91 89 88 88 88 91 94 94 93 92 91 93 95 95 94 92 89 85 82 79 76 73 68 63 60 59 61 70 82 85 81 78 78 78
72 71 70 68 60 59 72 84 84 81 79 77 75 72 68 66 66 68 71 74 77 79 80 82 81 79 78 79 80 81 80 80 83 87 89 92 94 95 96 96 96 97 97 95 94 93 91 91 90 89 90 91 90 89 90 88 87 85 82 78 75 74 75 78 82 87 90 91 90 87 82 78 75 72 68 66 63 58 60 72 84 87 85 83 83
72 77 81 78 75 78 85 83 76 74 71 66 64 64 63 63 64 67 71 74 76 77 79 81 81 79 79 79 80 80 79 78 81 86 91 95 96 96 98 99 99 100 101 99 99 98 95 93 91 88 86 84 83 82 81 79 77 75 72 71 72 73 73 73 73 75 80 86 88 86 80 76 75 74 70 66 64 62 59 59 67 80 87 86 84
75 79 82 80 78 77 75 70 67 65 62 58 58 59 60 61 64 67 70 72 74 76 78 79 79 79 79 80 80 80 80 79 79 82 88 94 95 96 97 97 97 98 98 97 96 97 95 93 91 89 86 84 85 85 83 80 78 76 75 77 79 81 82 83 83 83 83 84 86 84 76 70 70 69 68 68 67 68 70 66 61 66 77 83 85
73 75 74 71 68 64 61 60 60 58 56 55 56 57 59 61 64 66 67 69 72 73 74 76 78 79 79 79 80 80 78 79 81 83 83 83 85 86 86 87 89 89 89 89 90 92 93 93 92 92 91 91 92 92 89 83 79 78 80 83 86 90 92 94 95 96 92 86 86 84 75 66 63 61 64 72 78 77 78 79 73 63 62 69 78
70 66 64 61 58 54 53 55 57 56 55 56 58 58 59 62 66 68 68 70 70 72 74 76 78 79 79 79 79 77 74 76 83 85 79 74 76 80 83 85 88 90 92 93 95 95 96 96 96 97 97 96 96 97 94 89 87 87 88 88 90 94 98 99 99 101 96 82 75 75 74 73 74 72 71 78 86 84 80 82 83 74 62 61 68
58 56 59 56 53 54 55 56 57 57 58 60 60 58 60 65 68 68 69 72 73 73 76 76 75 77 78 76 76 75 74 76 80 81 77 75 76 80 84 87 90 93 96 98 99 99 99 99 100 100 99 99 99 100 99 98 97 96 95 93 92 94 97 99 98 98 95 84 76 77 84 88 87 82 79 80 84 84 81 81 82 80 74 70 69
53 57 59 55 54 58 58 57 58 61 63 62 61 62 65 63 58 55 60 68 72 70 71 72 71 71 72 72 73 74 76 77 77 76 76 76 78 82 87 91 94 95 97 99 100 100 99 99 100 99 99 100 100 100 100 100 100 99 98 97 97 97 98 99 100 97 93 91 90 89 92 92 85 78 79 83 84 83 83 82 81 80 79 78 75
58 61 59 56 57 56 54 58 63 64 64 64 66 69 63 52 50 58 66 69 69 67 66 67 67 66 68 69 71 75 76 76 75 74 75 78 83 89 93 95 97 96 96 97 98 98 99 99 99 99 99 100 100 100 100 100 100 100 99 99 100 100 97 95 95 95 93 93 93 93 92 93 89 84 82 85 85 83 84 84 81 79 78 79 80
68 68 64 63 62 56 55 64 68 67 67 69 71 72 65 56 61 72 74 71 69 66 64 64 64 66 68 70 72 75 75 74 74 76 79 83 87 92 93 92 92 92 93 95 95 95 97 99 98 98 100 100 100 100 100 100 100 100 100 99 100 100 97 92 89 90 92 91 91 91 92 92 91 89 87 85 85 83 83 84 83 80 79 78 80
77 74 69 68 67 62 63 71 72 69 70 72 73 74 72 69 71 74 72 70 69 67 65 64 64 66 69 73 75 74 73 74 78 82 84 84 84 87 89 89 89 89 91 95 97 97 98 100 100 100 100 100 100 100 100 100 100 100 100 100 100 98 98 97 95 93 94 94 93 92 93 93 93 92 90 88 89 89 88 87 85 83 83 82 82
77 74 71 70 68 65 68 71 67 63 67 73 74 74 75 75 76 74 69 66 64 64 64 63 64 67 70 72 74 73 74 78 83 83 82 78 79 86 91 90 90 92 95 97 99 99 100 100 100 100 100 100 100 100 100 100 100 100 100 100 100 99 99 99 97 93 92 93 92 90 91 94 95 95 91 87 88 90 89 88 87 86 86 86 86
72 70 67 65 67 71 69 60 51 54 65 71 71 72 75 75 72 66 62 61 62 63 63 63 65 68 69 70 72 74 77 80 81 81 79 75 79 90 95 91 91 96 99 99 100 100 100 100 100 100 100 100 100 100 100 100 100 100 100 100 100 100 99 98 97 95 93 93 92 90 90 91 92 94 94 91 88 87 84 82 83 87 90 88 84
68 66 63 65 71 69 53 41 45 57 67 69 70 74 74 68 60 58 58 59 61 63 64 65 66 68 68 69 72 74 73 74 78 80 79 78 85 95 98 95 96 99 100 100 101 100 99 100 100 100 100 100 100 100 100 100 100 100 100 100 99 98 97 96 97 97 96 94 93 93 93 93 91 92 92 91 90 88 84 82 82 86 88 85 80
64 62 62 67 65 49 33 38 54 63 66 69 72 70 63 56 54 56 57 58 61 65 66 65 65 65 66 67 70 71 70 72 77 78 78 83 93 99 100 99 100 100 100 100 100 100 100 100 100 100 100 100 99 99 99 100 100 100 99 98 97 96 95 96 96 96 95 95 94 93 91 91 91 91 90 89 88 88 86 84 84 85 83 80 78
61 63 66 65 51 33 32 47 57 59 63 67 63 56 51 51 53 54 55 57 61 62 62 60 57 57 58 61 67 68 67 70 74 74 76 87 97 100 100 100 100 100 100 100 100 100 100 100 100 100 100 99 99 100 100 99 99 98 97 98 98 95 93 94 95 95 96 97 97 95 93 91 91 92 92 92 91 89 87 86 86 86 83 80 78
60 63 65 57 42 33 39 49 52 55 59 56 49 48 50 50 50 52 54 57 57 55 54 52 49 48 52 58 61 62 67 74 74 69 75 90 99 99 100 101 100 100 101 100 100 100 100 100 100 100 100 100 100 99 100 100 99 98 97 96 94 92 92 94 96 98 99 99 97 97 96 95 92 91 93 94 92 89 89 90 89 88 87 84 81
58 59 58 49 40 38 43 47 49 50 49 45 46 50 50 48 50 53 54 54 53 50 48 46 44 45 48 51 53 60 73 80 75 71 81 95 100 100 100 100 99 100 101 99 100 101 100 100 101 100 100 101 99 98 97 98 99 99 98 97 96 95 94 95 95 97 99 100 100 98 98 97 96 94 95 95 93 89 89 90 91 89 86 84 82
54 54 54 47 40 40 43 45 45 45 43 45 49 51 48 47 51 53 52 51 48 45 44 44 43 43 46 47 52 66 79 79 73 76 89 99 100 99 100 100 100 100 100 100 100 100 100 100 100 100 100 100 99 99 97 96 98 99 99 99 99 98 96 96 96 96 96 96 96 97 96 97 99 99 96 95 94 92 91 90 90 89 86 84 85
50 52 51 44 41 41 41 42 42 43 46 49 50 50 50 51 51 49 47 45 42 40 42 45 43 43 47 49 52 64 76 76 73 82 96 100 100 100 100 100 100 100 100 100 100 100 100 100 99 100 100 100 99 99 99 98 100 100 99 99 100 98 97 96 96 98 98 96 94 95 96 96 98 98 96 96 96 96 96 93 91 91 91 88 89
49 55 50 42 41 42 40 41 44 45 48 50 50 51 52 50 47 44 40 38 38 39 42 44 43 43 49 49 48 58 71 73 75 88 100 101 99 100 100 100 101 100 100 100 100 99 99 99 99 100 100 99 100 100 100 100 100 97 97 99 98 97 98 96 94 97 100 98 97 98 99 98 98 97 96 98 99 98 98 96 95 96 96 93 91
53 55 47 40 40 40 40 43 45 46 49 51 51 51 50 44 40 39 36 36 38 40 42 43 41 43 48 46 44 54 68 72 78 92 101 99 99 101 101 99 100 100 100 100 100 100 99 99 100 100 100 99 100 100 99 100 99 97 96 93 87 87 94 96 92 92 93 91 91 95 97 98 100 99 98 100 100 100 99 97 96 96 96 93 91
55 49 42 40 39 38 40 43 44 44 47 50 49 48 45 40 37 36 36 36 38 40 40 40 40 43 45 41 40 51 65 73 81 93 97 97 100 102 99 97 99 100 100 100 100 100 100 100 100 100 100 100 101 100 99 100 100 98 98 93 83 78 82 86 87 89 88 86 88 91 91 94 98 99 98 99 100 99 99 99 97 96 95 93 92
51 43 42 42 39 36 38 42 42 41 44 47 47 45 42 39 37 36 36 36 37 39 40 40 41 41 38 33 36 49 62 73 83 90 92 95 101 101 98 97 96 97 100 101 99 99 101 100 99 101 100 99 100 100 100 101 100 100 99 95 83 74 74 80 87 91 89 87 89 92 91 93 97 99 98 97 97 98 97 96 96 97 98 97 96
50 45 44 40 37 37 38 39 40 40 41 43 43 41 40 39 37 35 34 35 37 40 40 40 41 40 35 31 34 46 62 75 84 86 88 95 101 100 99 99 98 97 100 101 99 100 101 99 99 101 100 99 100 100 97 96 97 97 93 83 74 71 75 81 85 87 89 91 94 96 96 96 98 100 100 98 97 99 99 96 95 98 99 100 99
50 47 43 38 36 38 38 37 38 39 39 39 40 40 40 39 36 33 33 35 38 41 41 40 40 40 36 30 30 44 67 82 83 81 87 96 100 100 100 100 100 100 100 100 99 101 100 99 100 101 99 97 95 91 86 86 90 88 79 70 68 71 75 75 74 78 86 91 92 94 98 100 99 100 101 100 98 99 100 98 98 99 99 99 100
49 43 40 38 39 38 36 37 39 38 37 38 39 38 39 38 34 32 34 38 41 41 41 40 38 34 28 24 30 49 73 83 79 78 87 94 97 98 101 100 99 100 101 100 100 101 99 99 100 100 98 93 87 82 84 91 94 86 75 69 70 71 71 70 71 74 79 82 84 89 97 101 100 99 100 100 100 100 100 100 99 98 99 100 100
47 43 40 39 39 38 37 39 40 38 37 39 38 37 39 39 34 32 37 42 43 42 41 37 30 25 27 34 44 59 73 77 75 78 85 88 90 94 99 100 100 101 100 100 100 100 100 100 100 99 97 91 84 82 89 98 98 88 79 75 73 71 69 69 72 74 74 75 77 84 92 98 101 101 100 99 100 100 100 100 99 97 98 101 101
47 47 43 38 38 39 37 38 40 38 37 38 39 39 40 39 34 35 42 44 42 43 42 29 18 23 39 52 59 63 68 71 74 76 80 83 84 85 89 95 99 100 100 100 100 99 99 99 99 100 99 93 87 88 93 95 91 87 86 83 77 72 70 70 71 72 73 73 73 76 81 88 95 100 101 99 100 101 100 100 100 98 98 100 101
48 49 45 40 40 38 36 38 41 39 37 39 40 40 40 38 35 39 45 43 41 45 42 24 13 28 51 62 63 64 65 67 70 73 76 80 82 79 79 84 91 94 98 101 99 97 96 97 97 98 98 94 91 94 97 95 90 90 93 91 83 74 72 73 72 71 72 72 71 71 71 75 85 97 101 100 99 101 100 99 100 100 99 100 101
Wind_Speed
9 8 7 6 5 4 1 2 2 1 1 2 3 4 5 5 5 6 9 9 7 7 8 8 11 10 8 9 12 13 13 12 12 12 11 12 12 13 12 12 14 15 14 14 14 14 15 15 16 17 17 17 17 17 17 17 19 20 20 21 21 21 21 20 22 24 22 19 18 18 17 17 19 19 19 20 22 22 22 23 24 25 25 26 27
8 8 6 5 5 5 5 3 2 2 1 2 3 4 5 6 6 5 7 8 7 8 9 9 9 10 11 13 13 13 13 12 13 13 13 13 13 13 13 13 15 15 14 14 15 15 16 16 17 17 17 17 17 17 18 18 19 19 19 20 22 24 23 22 21 22 23 21 19 18 17 16 18 20 20 21 22 22 23 23 23 25 25 26 28
7 8 6 5 4 3 3 2 1 2 3 2 3 3 5 6 6 7 8 8 7 8 9 10 9 11 13 14 13 13 12 13 15 15 14 13 13 13 14 14 14 15 15 15 16 16 16 16 17 17 17 18 19 19 19 19 19 19 20 20 21 22 21 20 20 21 23 24 22 20 18 16 16 19 20 20 20 21 23 24 24 24 26 27 27
6 7 6 5 4 3 1 1 1 2 4 4 3 4 6 7 7 8 9 9 9 10 13 14 13 14 13 12 12 13 15 15 16 16 15 15 15 15 15 15 15 16 16 15 16 17 18 18 17 16 17 18 19 19 19 19 18 19 19 20 20 21 21 21 21 24 26 26 24 22 20 19 18 19 21 20 19 20 22 24 24 25 27 27 27
6 6 6 4 3 4 2 3 3 2 4 5 5 5 6 6 7 8 8 10 10 12 15 15 13 13 12 11 12 14 15 16 17 17 17 17 17 17 16 16 16 17 17 16 16 17 18 19 19 18 18 19 19 19 18 19 20 20 20 19 19 21 22 21 20 21 23 24 24 23 22 21 20 20 21 21 20 21 22 22 23 25 26 26 26
6 5 4 3 3 3 2 4 3 3 4 5 6 7 7 8 8 9 10 12 12 12 14 13 11 12 12 11 13 15 16 18 18 17 18 19 18 18 17 17 16 17 17 17 18 18 18 19 20 20 20 20 20 19 19 20 21 22 21 21 21 21 22 22 20 19 19 20 22 23 24 23 21 21 21 21 21 22 22 22 21 22 23 23 24
6 4 4 4 3 2 2 3 3 4 4 5 6 7 8 10 10 10 11 12 13 13 13 12 12 14 15 15 17 17 18 19 19 19 19 19 19 18 17 17 17 18 19 19 20 21 21 21 21 21 20 20 20 21 21 21 21 21 21 21 22 23 23 23 23 22 21 21 21 21 22 22 21 21 20 20 21 22 23 23 22 21 22 23 24
7 6 5 4 4 3 3 3 3 4 5 6 7 8 9 10 11 11 12 12 13 13 13 13 14 16 16 17 18 19 19 20 20 20 19 18 19 19 17 18 20 22 24 25 26 25 23 23 23 23 22 20 20 21 21 21 20 20 20 20 22 23 23 23 24 24 24 23 22 22 22 21 20 19 19 19 21 22 23 23 23 22 21 23 23
9 7 6 5 4 4 4 4 4 5 6 8 9 9 10 11 12 12 13 13 14 14 14 15 16 17 18 19 19 19 20 20 21 20 17 17 20 22 22 23 25 27 29 30 30 28 24 22 22 23 23 22 22 22 22 22 23 23 24 24 25 24 24 25 25 25 25 24 24 24 24 24 23 21 20 20 22 22 22 22 23 22 21 22 23
9 8 7 5 5 5 6 6 6 6 8 9 10 11 11 11 12 13 13 14 15 15 16 17 17 18 18 19 19 19 19 20 19 18 16 19 22 24 25 25 26 27 28 29 29 28 24 21 21 21 22 22 23 23 23 24 24 25 26 26 26 25 25 26 27 27 26 25 26 25 25 25 26 24 22 21 21 21 21 22 22 22 23 25 25
11 9 7 6 6 6 7 7 7 8 9 10 11 11 12 12 13 13 14 15 16 17 17 17 18 18 19 19 19 19 20 20 19 18 18 21 23 24 25 25 26 27 27 27 27 26 25 22 21 21 20 20 22 22 23 23 24 24 24 25 25 25 25 26 26 27 26 26 25 24 24 26 27 26 24 23 22 21 22 22 22 21 22 23 22
12 10 7 7 7 7 8 8 8 9 10 11 12 12 12 13 13 14 15 16 17 17 18 17 18 18 18 18 19 20 20 20 20 20 22 24 25 25 26 26 27 28 28 28 26 26 27 26 24 23 22 21 21 22 22 23 24 24 23 24 25 25 25 26 27 26 27 27 26 25 25 25 26 27 27 25 25 25 25 25 25 24 22 21 21
12 10 9 8 7 7 9 9 9 10 11 12 13 13 13 14 14 15 16 17 17 18 19 18 18 18 18 18 19 20 21 20 20 21 23 24 25 25 26 27 28 28 28 28 26 26 27 27 26 25 23 22 22 22 23 23 24 24 24 23 24 25 26 26 26 26 26 27 28 29 28 27 28 28 27 26 26 27 27 28 27 26 24 23 23
13 12 11 8 6 7 10 10 10 11 12 13 14 14 14 14 15 15 16 17 18 19 18 17 17 18 18 19 20 21 21 21 21 22 23 23 24 25 26 26 25 26 27 27 26 27 27 26 26 26 25 24 23 23 24 24 25 26 25 25 25 25 25 25 25 25 26 26 27 28 27 27 28 28 26 25 25 26 27 28 27 28 28 27 26
14 13 11 10 8 8 10 11 11 11 13 14 14 14 14 15 15 15 16 18 18 17 17 17 17 19 19 20 21 21 21 21 21 22 23 23 23 24 25 25 25 26 27 27 27 28 27 26 25 26 27 26 25 25 25 26 27 27 27 27 26 26 26 26 25 26 27 27 27 27 27 26 25 25 25 25 25 25 27 28 28 28 27 26 26
15 12 10 11 10 9 10 11 11 12 13 14 15 14 14 15 16 16 17 18 17 16 17 17 18 20 20 20 21 21 21 22 23 23 23 24 24 24 25 26 27 28 29 28 28 28 26 26 26 27 28 27 26 26 26 26 26 27 28 29 29 28 27 27 26 26 27 29 29 30 30 29 27 26 25 24 25 25 26 28 28 27 25 25 26
15 11 9 10 10 9 11 11 11 13 13 14 14 14 14 15 16 16 16 16 16 16 17 18 19 20 20 20 21 22 23 24 24 24 24 24 25 26 26 27 28 29 30 29 28 26 25 25 26 26 26 26 26 26 26 26 27 28 29 30 30 29 29 28 28 28 27 27 27 28 29 30 30 29 27 25 25 25 27 29 30 28 27 28 28
14 10 9 10 10 9 10 11 11 12 13 13 14 14 15 15 15 15 16 16 16 16 17 18 19 20 21 21 22 23 24 23 23 23 23 24 24 26 27 29 29 29 29 27 25 24 24 24 24 24 24 24 24 25 25 26 27 28 29 29 29 30 29 28 29 29 28 27 26 26 27 29 30 30 29 27 26 26 28 31 31 29 29 29 28
11 9 8 9 9 9 10 10 11 11 12 12 13 14 14 14 14 14 15 15 16 16 17 19 19 20 21 22 23 23 22 22 22 23 23 24 25 26 27 29 29 28 28 27 25 24 23 24 23 23 23 23 23 24 24 26 27 28 29 30 30 30 29 29 28 28 28 28 28 28 28 28 29 30 30 28 26 25 27 29 30 31 31 31 29
10 9 8 7 7 7 9 10 11 11 11 12 12 13 13 13 13 14 15 16 16 17 18 19 20 21 22 23 23 23 23 23 23 23 24 26 27 27 27 27 27 27 26 26 25 24 24 24 24 23 24 24 25 25 26 26 27 28 29 29 30 30 30 30 30 30 30 31 31 32 33 32 31 32 32 32 30 27 27 27 28 29 30 31 32
7 7 6 6 6 7 9 11 10 10 10 10 12 12 12 12 13 14 16 17 18 19 19 19 20 22 23 23 24 24 25 25 24 23 24 25 25 25 24 24 25 25 25 25 25 25 24 24 24 25 27 28 29 29 30 30 30 30 30 30 32 32 33 33 34 34 35 36 36 36 36 36 35 33 33 33 33 31 28 27 26 26 27 30 33
5 5 5 4 6 8 9 8 8 8 9 10 12 13 13 12 13 15 17 18 19 20 19 19 20 22 23 24 24 25 25 25 25 24 23 23 23 22 21 22 23 25 26 26 25 25 25 26 27 27 28 29 30 31 32 32 32 32 33 34 35 36 38 39 39 39 39 39 40 40 39 38 36 35 33 32 32 32 29 26 24 24 25 28 30
3 3 3 4 6 7 6 6 7 9 11 12 13 14 13 13 15 16 17 18 20 20 20 20 21 23 24 24 24 25 25 25 24 24 24 24 23 22 20 21 23 25 26 27 27 27 28 28 28 29 29 31 32 33 35 36 37 39 39 40 41 41 41 43 43 43 43 42 42 41 41 40 38 37 36 34 33 33 32 29 27 24 24 26 27
1 1 1 3 5 5 4 7 9 10 11 13 14 13 12 14 16 17 17 18 19 20 20 20 21 22 23 23 24 25 25 25 23 23 25 25 24 22 21 21 22 23 25 27 28 29 29 29 30 32 34 36 37 38 40 41 42 42 42 41 41 40 40 42 43 43 43 43 44 44 44 42 40 39 38 36 35 34 33 33 32 29 26 26 27
2 2 0 3 4 3 6 9 9 9 11 14 14 12 11 14 16 16 17 19 19 19 20 21 20 21 22 23 24 25 26 26 25 24 25 26 26 25 25 25 26 26 28 30 32 33 34 35 35 36 38 40 41 42 43 44 44 43 42 41 41 41 42 43 43 42 41 40 41 43 44 43 41 40 38 36 35 35 33 32 33 33 31 28 28
2 2 3 3 3 6 9 8 7 9 13 14 12 11 13 15 16 16 16 17 18 18 19 19 19 21 22 24 25 25 26 28 25 23 24 27 28 29 30 30 31 32 33 33 33 34 35 36 37 39 40 41 42 44 46 46 44 43 42 39 37 36 37 38 38 37 37 37 37 37 39 40 39 38 36 34 33 33 32 31 32 34 34 32 30
3 3 4 4 5 9 10 7 7 11 12 12 11 12 14 15 15 16 17 17 18 18 18 18 20 22 23 24 25 25 26 27 24 23 26 30 31 31 32 33 33 34 34 34 34 34 36 38 40 41 42 43 43 44 44 41 38 35 33 30 29 30 32 31 31 31 32 33 35 36 36 35 34 34 32 30 30 30 29 29 30 32 33 33 33
3 5 5 6 7 8 7 7 10 12 11 11 12 13 14 14 16 19 19 18 17 17 17 18 20 21 21 22 23 23 24 24 24 25 30 33 33 34 36 38 38 39 39 39 39 39 40 41 42 43 44 45 44 40 36 33 31 29 27 25 25 26 27 26 26 26 27 27 29 32 33 33 32 32 31 29 29 28 26 27 29 31 31 32 32
5 6 6 6 7 8 10 11 11 10 11 12 13 13 14 17 19 20 18 15 15 17 18 18 19 20 20 21 22 22 23 24 26 29 32 34 35 37 39 41 42 43 43 43 42 43 42 43 43 43 43 42 38 32 28 27 27 26 25 24 23 24 24 24 25 26 27 28 28 30 31 30 30 31 31 31 29 27 26 27 29 30 30 31 32
5 5 6 7 10 14 14 11 9 9 11 13 13 14 16 18 18 17 17 16 17 17 18 20 21 21 21 21 21 22 23 26 30 32 34 36 38 39 41 42 43 44 44 43 42 41 41 41 41 40 39 35 30 26 25 25 26 27 26 24 23 23 23 24 24 25 27 30 31 32 31 30 29 29 30 31 29 26 26 27 28 28 30 31 31
6 5 6 7 12 16 13 9 9 10 12 14 14 15 18 19 17 16 17 19 19 18 19 21 22 22 21 21 23 25 26 28 31 33 35 37 39 40 42 42 41 40 39 37 37 37 37 36 35 33 31 27 24 23 23 24 26 27 26 24 24 23 21 20 21 23 26 28 30 31 31 31 30 30 30 30 29 27 27 26 26 27 29 31 32
4 6 7 7 12 14 11 8 10 12 13 14 14 16 18 18 18 18 19 20 20 20 20 21 22 22 22 22 24 27 29 30 31 33 35 36 38 40 40 38 36 34 30 29 30 31 30 29 27 25 22 21 21 22 23 23 23 23 22 23 23 21 19 19 21 23 24 26 26 27 29 30 31 32 32 30 29 28 27 27 27 27 27 29 31
5 6 7 8 11 12 9 8 11 12 12 13 14 15 16 17 18 20 21 21 20 20 20 20 22 23 24 24 24 26 28 29 31 34 35 36 38 40 40 36 32 29 25 23 24 25 24 23 22 21 20 21 23 23 22 21 20 19 21 23 24 22 21 21 23 25 26 26 26 26 27 28 29 30 31 30 28 27 27 27 28 28 28 28 29
7 7 8 10 10 9 8 10 12 12 12 13 14 15 15 16 18 20 22 22 22 21 21 21 22 23 25 25 24 25 27 30 33 37 38 38 39 40 40 36 33 27 23 22 22 23 22 21 21 20 20 21 22 22 21 21 22 22 23 24 24 24 22 22 23 25 25 25 25 26 27 27 28 28 29 28 28 27 28 28 28 28 28 28 29
7 8 9 8 7 7 11 13 12 11 12 13 14 15 16 17 18 19 20 21 22 22 21 22 22 23 24 23 24 26 29 33 37 40 39 37 37 39 38 36 33 27 24 24 24 24 23 22 21 21 21 21 21 22 22 22 23 23 24 25 25 25 25 24 24 25 25 25 26 26 26 26 27 27 28 29 29 29 30 30 29 29 29 28 29
6 7 5 6 8 12 13 12 10 11 12 13 14 15 15 16 17 18 19 19 20 21 21 22 23 24 23 23 25 28 30 35 39 40 38 36 36 36 34 33 31 28 26 26 25 24 23 21 20 21 21 22 22 22 22 22 23 24 25 26 26 26 27 26 26 26 26 27 27 26 26 26 25 26 27 29 30 30 31 31 30 30 30 29 28
7 4 3 8 13 14 12 10 10 12 12 13 14 14 15 16 16 17 18 18 19 21 22 22 24 25 24 24 25 27 30 35 38 39 39 38 36 34 31 29 28 28 27 26 24 23 22 21 19 19 20 20 20 21 21 22 23 24 25 26 26 27 28 27 27 28 28 27 25 24 25 25 25 26 28 29 29 29 30 30 29 29 29 29 27
5 3 6 11 14 12 10 9 11 11 12 12 13 14 14 15 16 16 17 18 19 21 22 22 24 24 24 25 26 28 32 37 40 41 42 41 38 34 32 29 27 26 27 27 24 22 22 21 19 18 18 18 18 19 20 21 22 24 25 26 27 28 28 26 25 25 24 24 24 23 22 23 23 24 27 28 29 29 28 27 27 27 28 27 27
4 6 9 11 11 10 10 11 11 11 12 13 13 14 14 15 16 17 18 19 20 21 22 22 23 22 23 26 28 31 35 40 42 44 45 43 39 36 33 31 29 28 28 27 24 21 20 20 19 19 19 19 19 19 20 21 22 23 25 26 26 25 24 23 22 21 21 22 23 22 21 22 23 24 25 26 28 28 28 27 26 26 27 28 29
4 7 9 10 10 10 10 10 10 11 13 13 13 14 15 15 16 18 19 20 21 21 22 23 22 23 25 27 29 32 37 40 42 44 45 43 42 39 36 33 32 29 26 24 22 19 19 19 19 18 18 18 17 17 17 18 20 22 23 23 24 24 23 23 23 22 21 21 21 20 20 20 22 23 24 25 26 27 27 26 25 25 26 27 28
4 4 6 9 10 10 10 10 10 12 13 13 13 14 15 16 17 19 20 20 21 22 23 23 23 24 25 26 28 32 36 38 41 44 44 43 44 43 39 34 31 28 24 22 20 18 16 15 15 14 14 13 13 14 15 16 18 19 19 19 20 22 23 24 23 22 22 22 21 20 20 19 19 20 21 22 24 25 25 25 24 25 26 26 26
3 4 6 8 9 10 10 10 12 13 13 13 13 14 15 17 18 19 19 20 21 22 22 23 24 24 23 25 29 33 36 37 40 43 45 45 46 45 41 36 32 28 23 19 17 14 12 12 13 13 12 12 12 13 14 15 15 15 16 17 19 20 22 24 24 23 24 23 21 20 19 18 17 17 17 19 20 22 24 24 25 25 25 26 25
4 5 7 8 8 10 10 11 12 13 13 14 15 15 16 17 18 18 19 20 21 21 22 23 24 23 22 26 31 34 35 37 40 43 45 47 48 47 43 38 33 27 20 15 12 10 10 12 12 11 10 10 11 12 13 13 13 15 15 17 19 21 22 24 25 24 23 22 22 21 19 17 15 14 13 13 14 16 19 22 24 26 26 26 26
5 5 7 7 8 10 11 11 13 14 14 15 15 15 15 16 17 17 19 20 20 21 22 23 23 22 24 29 32 33 34 36 39 43 46 48 48 47 44 38 32 25 18 13 10 9 10 11 10 10 10 10 10 11 13 13 14 14 15 16 18 20 21 22 23 22 21 21 21 21 20 18 17 16 14 12 12 13 16 17 19 23 25 26 26
5 6 7 8 9 10 11 11 12 14 14 14 14 14 15 16 17 18 19 19 20 21 22 22 21 22 26 30 32 32 33 35 39 43 46 47 47 46 43 37 30 23 17 14 12 11 10 10 11 11 11 11 12 13 13 14 13 13 14 15 17 19 20 20 20 19 19 19 20 21 21 19 18 17 16 14 13 14 17 18 17 18 19 22 24
6 7 7 8 9 10 11 11 12 14 14 13 14 15 15 16 17 18 19 19 20 21 22 21 20 23 27 30 31 30 31 34 40 44 46 46 45 44 42 37 30 22 17 15 14 13 12 11 12 13 13 13 13 13 12 12 12 12 13 14 15 16 18 19 19 18 18 19 21 23 22 20 17 15 15 14 13 12 14 18 19 17 15 16 20
8 8 7 8 9 10 10 11 13 13 13 13 14 15 15 16 17 18 18 18 20 21 21 21 21 23 26 28 29 29 31 35 39 43 44 43 43 42 41 38 32 25 19 16 16 16 14 13 13 15 14 12 9 9 9 10 11 11 11 12 13 14 16 18 19 19 18 19 21 22 21 19 17 15 15 15 14 12 11 14 18 19 16 13 15
8 8 8 8 9 9 10 11 12 13 13 13 14 14 15 15 16 17 17 18 19 20 20 21 22 23 25 27 28 30 33 36 38 40 41 41 41 41 41 39 34 27 21 17 17 16 14 12 12 12 10 7 6 7 9 9 8 7 7 10 12 14 15 18 19 20 19 19 20 20 19 17 16 16 14 14 14 12 10 9 14 20 18 14 14
8 9 8 8 9 9 10 11 12 12 13 13 13 14 15 15 16 17 17 18 19 19 20 22 23 23 25 27 29 30 32 33 35 38 40 40 40 41 41 40 37 31 26 21 18 16 14 13 12 12 10 8 8 9 8 8 7 6 5 8 11 14 16 17 18 19 20 21 22 21 19 16 15 15 14 13 12 12 10 7 9 17 19 17 16
8 8 8 8 8 9 10 11 11 12 13 13 13 14 14 15 16 17 17 18 19 19 21 23 24 23 24 27 28 28 29 31 33 35 37 39 40 41 41 40 38 36 33 29 26 22 19 17 16 15 14 12 12 10 10 10 10 7 6 7 10 13 15 17 18 19 19 20 23 25 23 18 15 14 14 14 12 10 7 4 4 14 20 21 21
7 8 8 9 8 8 9 10 11 11 12 12 13 13 14 15 16 16 16 18 19 19 20 24 24 23 23 25 26 26 28 29 30 32 34 36 38 40 41 40 38 36 34 31 29 27 24 21 19 17 15 14 13 14 14 13 11 8 6 6 8 10 13 15 17 18 19 20 22 25 25 23 19 16 14 14 14 12 8 5 10 19 26 28 28
Wind_Direction
154 150 173 182 159 143 150 330 357 108 342 6 18 4 358 338 318 314 318 322 328 326 329 344 352 349 333 313 309 315 320 326 330 328 323 318 311 305 303 304 305 302 299 296 293 291 287 285 284 283 282 283 282 281 280 278 278 281 284 283 281 278 275 270 270 275 279 277 275 273 271 272 272 269 267 264 260 259 259 255 253 257 257 256 258
162 161 169 170 156 148 160 193 279 318 342 19 7 344 329 319 314 313 315 314 315 324 328 329 328 320 303 296 307 331 342 335 323 316 312 309 306 305 304 302 299 296 296 297 297 294 293 292 290 286 282 279 277 276 277 277 274 273 274 275 278 280 278 274 272 274 276 277 277 277 275 271 268 268 269 267 261 258 259 259 257 256 256 257 258
171 164 158 148 143 147 159 172 259 321 329 352 352 326 310 307 304 300 303 305 311 317 309 297 290 286 294 312 332 337 326 312 310 311 311 309 306 303 298 294 293 292 291 291 290 287 286 287 288 288 286 282 278 273 272 273 272 270 270 269 272 276 278 277 274 274 277 280 279 276 275 274 271 273 275 272 267 261 260 261 261 258 256 255 257
165 155 155 154 153 139 111 310 293 308 319 335 334 318 318 321 313 303 306 309 307 302 293 284 277 279 296 321 323 310 304 305 308 309 309 307 303 298 294 291 290 289 286 285 284 282 281 282 281 281 282 282 282 279 276 274 273 273 273 271 271 273 276 278 277 275 275 277 279 276 273 272 271 272 275 274 272 267 264 263 261 259 258 259 260
165 157 154 157 168 143 151 265 274 307 319 323 317 305 299 296 293 292 294 291 287 289 291 288 284 288 299 307 301 302 308 306 302 302 305 306 306 305 301 295 294 294 293 290 287 283 282 282 279 274 272 274 277 278 278 276 273 274 275 274 274 276 276 275 278 281 277 276 279 279 278 277 273 269 270 273 272 269 267 265 263 262 261 262 263
177 170 152 159 200 174 191 266 297 321 313 308 302 293 282 276 277 278 279 282 284 287 291 297 302 303 303 301 297 297 297 295 296 302 306 308 310 313 312 307 304 303 299 294 290 286 283 282 282 278 274 273 273 273 273 271 270 272 274 274 275 278 277 273 276 284 285 283 284 284 285 284 279 273 272 272 272 272 272 270 267 264 264 264 264
196 186 166 181 223 228 238 287 310 305 295 292 287 288 291 293 296 295 293 295 298 297 297 300 302 298 295 293 291 288 286 287 292 298 302 305 309 311 312 308 300 293 291 293 294 291 285 282 282 282 278 276 274 274 273 272 272 272 272 272 272 274 275 272 272 275 276 277 280 282 286 288 284 279 276 272 270 268 270 271 268 264 262 264 265
207 198 185 199 232 257 263 273 286 293 300 303 303 305 305 305 309 310 308 307 306 305 303 300 296 294 294 295 295 294 292 292 298 303 300 296 298 297 294 290 287 286 289 295 298 296 290 283 280 279 278 277 276 276 275 273 274 273 271 272 274 275 276 275 274 275 274 273 273 272 274 276 278 279 279 276 272 267 267 270 270 266 263 264 265
211 208 200 201 222 249 269 284 292 302 313 319 321 321 318 317 316 314 313 312 310 308 306 303 302 301 302 303 304 305 303 301 303 305 298 290 289 288 285 284 286 289 293 298 300 299 295 290 286 283 280 279 280 281 281 279 279 278 277 277 278 279 279 277 277 278 277 276 275 275 273 271 272 276 276 274 273 272 271 271 269 266 264 264 264
212 216 213 208 222 245 271 294 303 309 318 324 325 323 321 320 316 314 314 312 311 311 310 309 309 307 306 306 306 305 301 298 299 302 298 292 291 291 292 291 290 291 295 299 301 300 298 296 294 292 289 284 282 284 286 287 284 282 280 279 278 279 279 278 278 279 279 278 278 278 277 276 276 276 274 272 273 274 274 273 269 265 264 265 266
213 220 218 215 228 247 271 294 306 310 318 324 323 321 320 317 316 316 316 315 315 314 313 312 309 307 305 303 303 302 299 299 302 304 297 290 289 292 293 292 293 294 297 298 298 298 298 296 291 289 288 286 283 281 281 282 282 281 281 279 278 279 279 279 278 277 278 278 277 276 275 274 276 276 274 273 272 273 274 275 273 270 267 269 271
217 221 218 220 229 251 278 297 306 309 316 321 320 318 317 317 317 317 316 317 316 314 313 310 307 305 303 302 302 301 299 299 299 299 296 292 292 293 294 295 297 297 298 298 296 295 297 297 292 286 281 279 280 280 279 279 280 281 282 281 280 280 279 279 277 275 275 275 274 272 270 271 273 273 273 273 273 273 274 274 276 276 274 275 276
216 216 218 228 234 254 278 293 302 307 315 320 321 321 320 318 317 316 314 314 315 315 316 316 313 310 307 304 302 300 299 297 295 298 301 299 296 295 295 297 297 296 297 298 295 291 293 296 296 293 288 283 282 280 279 280 282 283 284 283 282 280 280 279 277 275 275 275 273 271 270 271 271 270 270 271 273 276 276 275 275 275 274 275 277
213 217 226 237 237 248 270 286 299 309 317 321 322 322 321 319 317 316 315 316 318 318 317 315 311 307 305 303 301 301 300 299 300 302 302 301 300 298 297 297 296 295 296 296 293 290 290 292 293 294 294 292 289 285 281 281 282 282 281 280 279 279 279 280 280 279 278 277 274 272 271 271 270 270 269 269 269 272 274 274 272 271 272 274 276
214 225 236 242 238 245 266 284 301 312 318 321 322 321 320 319 319 318 318 318 318 316 314 311 307 305 305 305 304 303 302 300 300 301 301 301 300 298 298 298 296 295 295 295 293 292 292 292 291 290 290 290 288 286 285 284 284 283 282 280 279 279 280 281 282 282 281 279 277 276 276 275 274 273 272 269 265 264 266 269 270 271 270 269 271
215 229 238 241 241 248 265 284 302 315 320 321 319 319 318 319 321 320 318 317 314 312 310 309 309 310 310 309 306 304 301 298 295 294 295 298 299 299 300 299 296 295 295 293 293 292 290 288 287 286 286 286 285 285 286 286 286 284 282 281 280 280 281 282 281 280 280 280 280 281 282 281 279 277 273 269 266 263 264 266 267 267 267 267 269
214 228 237 238 240 250 268 289 308 317 321 319 316 318 318 318 318 316 313 313 311 310 310 310 312 313 310 307 305 302 301 300 299 296 294 295 297 297 297 296 295 295 295 295 295 293 289 287 287 287 286 285 285 285 285 284 283 282 282 281 281 280 280 280 281 282 282 281 281 282 281 279 277 276 273 269 266 265 264 264 263 265 268 270 271
216 230 237 237 242 257 278 300 313 315 318 318 317 319 318 314 314 314 315 316 314 313 313 311 309 305 301 301 301 301 302 305 306 306 303 300 298 295 294 295 296 297 299 300 297 293 291 290 289 289 289 289 290 289 287 285 284 283 284 284 284 283 282 282 283 282 281 280 278 275 274 274 275 275 273 271 268 264 262 262 262 262 265 267 267
224 236 239 239 249 269 291 308 314 314 319 321 319 318 315 313 316 318 318 316 313 311 308 305 305 304 302 303 303 301 301 301 303 307 307 304 302 300 298 296 296 297 299 299 297 294 292 291 291 291 291 293 294 293 290 288 287 285 284 284 283 283 283 283 281 280 278 277 275 273 271 272 273 272 271 271 270 267 264 263 262 260 259 260 260
229 238 241 248 267 289 304 312 315 318 322 320 317 315 312 314 319 320 319 315 310 306 306 307 310 311 311 312 311 309 308 305 303 302 302 300 300 301 300 297 297 298 299 298 298 297 295 294 294 293 290 291 291 289 287 286 285 285 284 284 283 282 280 279 277 276 275 275 275 276 275 275 273 271 270 269 270 271 268 266 263 260 258 258 257
231 240 246 261 283 299 307 312 317 322 322 318 315 314 315 319 323 322 320 317 313 312 313 314 314 315 316 317 317 316 317 315 312 308 305 302 300 301 301 299 297 298 298 297 297 296 295 294 291 289 288 288 287 284 283 281 281 281 281 281 281 281 280 278 276 275 275 275 275 276 278 279 278 275 273 271 270 272 272 269 264 260 258 258 258
226 239 251 269 291 306 313 316 319 321 322 321 321 322 325 329 328 323 319 316 316 315 314 313 314 316 317 318 319 319 320 320 320 319 317 313 309 309 308 304 301 299 299 297 295 294 293 291 289 288 287 285 284 283 282 281 281 281 280 280 281 282 281 279 277 276 275 275 275 276 276 277 278 277 276 272 269 268 269 268 266 261 260 260 260
214 242 272 293 315 324 322 318 324 331 335 332 326 327 334 334 328 323 320 318 318 318 316 317 318 318 318 319 319 319 318 317 319 322 323 320 316 315 311 306 302 301 299 297 295 293 292 291 290 288 285 283 282 281 280 280 280 279 279 281 282 282 282 282 279 276 274 273 273 274 274 274 274 275 275 274 271 268 265 264 266 266 265 265 263
156 170 264 312 334 338 324 327 337 341 337 329 323 324 329 329 324 321 320 319 320 319 319 319 318 318 319 320 319 317 316 314 314 319 322 321 318 315 310 304 301 300 299 297 296 296 296 294 290 286 284 284 283 283 283 282 282 281 282 284 284 284 284 284 283 281 276 273 271 271 271 272 273 274 275 275 274 272 268 264 263 265 266 266 265
122 123 322 330 344 334 321 328 334 332 327 327 328 326 323 322 321 320 320 321 321 319 318 319 317 317 317 318 318 319 317 314 312 314 316 318 318 315 311 306 303 302 302 302 300 298 297 294 291 289 289 290 290 290 290 288 287 287 288 289 288 287 285 285 285 282 277 272 271 271 270 271 273 273 275 276 276 274 271 264 259 259 262 264 265
66 38 353 347 348 333 328 323 317 322 328 331 330 325 321 321 320 318 318 320 321 320 319 318 317 316 314 314 316 318 318 318 318 317 319 322 323 320 316 313 310 308 307 307 304 299 296 294 292 292 293 294 294 293 292 291 290 290 290 291 290 287 285 283 282 278 271 265 266 270 271 272 274 274 275 276 275 272 270 265 258 255 256 259 263
40 3 347 342 331 327 327 322 321 328 331 328 325 323 322 321 316 311 312 315 315 315 316 316 317 317 315 314 315 317 319 322 322 321 325 329 329 326 324 322 320 316 313 310 305 299 294 292 292 292 292 294 295 295 295 295 294 293 293 293 292 287 285 283 280 276 270 265 264 267 269 271 273 272 273 273 271 268 267 264 259 254 252 253 257
22 9 356 339 326 319 316 324 334 335 329 324 325 324 322 318 312 310 313 314 310 310 313 316 319 321 319 318 318 318 319 320 319 320 325 329 329 327 325 323 321 317 314 310 306 300 295 293 292 291 292 294 296 296 295 293 293 294 294 292 290 289 289 286 280 276 276 276 273 270 268 266 266 267 269 270 269 267 266 263 258 254 251 249 251
19 14 354 333 321 316 319 328 336 335 327 323 322 319 313 309 309 312 318 323 322 319 317 318 321 325 324 322 321 319 318 318 320 323 326 327 326 325 322 320 316 313 310 307 303 299 296 295 293 293 295 297 296 294 291 290 291 292 288 284 284 287 289 287 281 278 279 281 279 276 271 266 264 265 267 268 266 262 263 263 259 254 250 249 250
19 12 359 343 323 317 322 334 338 330 325 324 321 316 310 308 313 320 325 329 330 328 324 323 328 332 331 329 327 325 323 324 325 325 326 326 325 323 319 315 312 309 307 304 300 297 295 295 295 296 298 298 293 289 288 288 288 289 285 281 282 285 285 281 277 276 277 278 277 277 274 268 264 265 268 268 264 258 258 261 261 256 251 249 250
24 7 356 342 324 321 330 345 337 324 321 321 320 316 314 318 326 327 325 327 331 332 330 330 333 336 335 334 332 329 328 327 326 326 326 325 325 324 320 315 311 310 309 304 299 297 297 296 297 301 302 298 294 292 292 291 291 291 288 285 286 288 286 282 279 278 278 278 276 275 272 267 265 268 272 272 268 262 258 257 256 255 254 252 252
14 354 350 339 326 329 339 341 329 323 322 320 319 318 319 325 328 327 327 331 332 332 333 333 335 337 336 334 332 329 327 327 328 328 328 326 327 328 327 322 318 316 313 308 303 301 301 300 301 305 305 302 302 303 301 298 296 293 291 291 293 293 288 284 284 282 282 283 282 276 272 270 269 271 274 273 269 264 261 258 256 254 254 253 252
6 355 350 332 324 333 344 333 323 322 319 317 320 322 324 326 327 327 331 334 332 333 336 338 337 336 333 330 328 326 325 327 330 333 334 333 333 334 333 330 329 326 324 320 315 311 310 307 305 304 301 300 304 307 304 300 297 294 293 295 297 298 295 290 286 285 285 288 287 282 278 275 273 271 270 268 265 262 261 261 258 255 255 256 255
8 347 333 325 330 340 335 320 316 318 317 319 324 327 328 329 329 328 330 332 331 334 338 340 338 334 331 329 327 326 329 333 336 338 339 339 338 335 333 335 337 337 331 325 318 314 312 309 305 303 299 299 303 305 302 300 299 299 299 301 302 304 303 298 295 294 294 293 291 287 284 279 274 270 266 263 262 261 260 258 256 254 254 256 258
351 335 333 338 341 327 315 317 325 327 325 328 333 333 331 331 330 330 331 331 331 332 335 338 337 334 333 332 329 329 333 338 339 340 341 341 339 335 334 337 339 335 328 321 315 312 310 306 302 301 300 299 300 302 303 304 305 304 304 305 305 306 305 303 303 302 302 301 297 292 286 281 276 271 267 265 265 265 262 258 255 255 255 255 256
333 336 341 332 319 317 323 333 338 332 331 338 339 335 330 329 330 332 332 332 332 332 334 336 335 335 336 334 330 330 332 334 336 339 343 344 340 336 333 333 331 326 321 317 313 310 307 304 299 296 296 297 299 301 304 305 304 303 303 304 305 306 305 303 303 302 300 301 300 294 286 279 273 270 270 269 267 266 263 259 257 255 255 255 256
336 337 320 313 318 329 340 341 332 331 340 344 337 330 329 332 334 334 333 332 333 333 335 336 337 337 338 336 332 330 329 330 335 343 347 345 341 336 332 329 326 323 320 317 313 309 306 303 299 296 295 297 300 302 304 303 301 302 304 305 305 305 303 302 302 301 299 299 299 295 287 278 270 268 270 271 268 264 261 259 259 258 256 255 254
338 305 308 320 330 341 345 337 334 339 341 336 330 329 333 335 333 332 332 332 333 334 334 335 337 339 339 338 334 330 330 334 341 348 349 346 342 338 334 330 325 319 315 313 310 307 304 303 302 299 295 294 294 294 296 299 300 301 301 299 298 299 301 301 300 299 300 302 301 297 289 283 278 274 271 269 267 263 259 256 255 255 256 256 255
329 320 326 334 344 352 348 343 344 340 330 329 333 336 336 333 330 331 331 332 332 333 332 332 335 336 337 337 335 333 336 342 347 349 349 347 345 342 338 333 329 324 319 316 314 309 304 301 298 296 293 289 288 287 289 294 298 298 297 298 301 304 306 308 308 308 309 309 308 303 294 287 284 280 273 267 265 263 261 258 254 252 254 256 254
337 338 339 342 349 355 354 349 342 332 328 334 339 337 333 330 330 330 331 330 330 330 329 330 331 331 333 335 336 336 340 345 348 348 349 349 349 348 345 338 333 328 323 319 316 309 301 297 295 295 296 296 297 297 296 296 298 298 301 308 313 316 319 325 328 328 326 321 316 312 303 292 284 279 272 265 261 260 260 258 254 254 256 254 248
357 348 336 339 346 351 353 346 336 333 337 340 337 333 332 332 332 331 331 330 329 328 329 330 331 330 332 332 333 338 344 347 347 349 352 354 354 353 349 343 338 334 327 322 319 313 308 305 304 304 305 305 306 307 305 304 306 310 319 329 332 332 337 343 343 340 337 333 325 317 310 301 290 280 271 263 259 258 256 254 254 256 258 255 249
6 352 338 341 344 344 345 342 337 338 340 336 333 334 335 334 333 332 331 330 330 330 332 333 333 334 333 328 330 340 349 350 349 353 358 359 358 356 352 347 345 342 336 330 327 324 319 314 310 310 311 312 315 318 321 323 329 339 351 357 354 351 351 349 345 341 340 339 335 327 321 314 303 290 277 266 261 258 255 255 257 258 257 255 252
15 352 340 342 343 342 341 339 338 338 336 334 338 341 338 333 333 333 332 331 333 335 335 335 337 338 332 327 332 344 351 351 354 1 4 2 360 359 357 354 350 348 344 341 338 333 325 321 322 328 335 339 342 345 349 357 7 14 14 10 3 357 352 346 342 341 343 345 344 340 335 329 322 311 294 275 265 261 258 257 258 257 255 252 248
7 344 338 340 344 344 340 337 337 337 335 336 340 340 335 333 334 334 334 334 336 337 337 338 341 338 330 329 339 350 353 353 359 6 6 3 1 1 1 358 354 350 351 355 354 348 345 347 356 5 7 6 10 16 21 24 23 17 12 8 1 352 344 340 339 341 345 349 349 346 343 338 330 322 312 296 278 265 258 254 254 254 250 245 240
353 346 346 342 342 343 339 336 336 335 335 337 337 335 335 335 335 336 337 337 338 338 340 343 342 335 331 337 348 354 355 357 4 7 6 4 3 3 3 3 359 357 2 11 13 12 15 20 24 26 26 29 36 40 39 35 28 17 11 7 359 346 340 339 340 343 349 352 350 348 347 341 329 322 320 313 296 275 260 250 245 244 242 236 231
352 350 347 340 341 342 339 336 336 336 337 338 335 334 335 335 336 338 340 339 339 340 343 346 343 335 336 345 354 358 358 1 5 6 6 5 5 5 7 8 7 8 15 23 27 30 37 38 32 31 38 46 50 50 46 36 27 20 15 10 1 350 344 345 349 352 354 353 349 349 350 347 338 332 329 324 313 293 269 250 238 232 231 231 227
355 350 344 340 341 339 337 337 337 338 340 339 336 336 336 335 338 341 341 340 342 344 345 346 344 340 341 349 358 3 4 3 3 4 6 7 7 8 11 13 14 15 22 34 43 44 43 42 39 38 45 54 59 56 47 35 28 26 19 10 4 356 349 352 1 4 360 355 351 348 348 350 349 345 340 334 326 312 283 252 233 222 216 215 216
352 348 340 339 339 337 337 339 338 339 341 340 337 338 337 337 339 342 341 341 345 346 346 346 346 344 347 354 2 6 6 3 2 6 10 10 10 11 14 18 22 23 25 37 50 49 41 40 45 47 51 58 55 46 39 28 20 22 13 2 2 2 356 358 7 11 8 5 2 356 351 353 354 349 343 338 332 322 305 266 229 213 204 200 201
351 349 341 336 337 337 336 337 338 340 341 340 339 339 339 339 341 342 342 344 346 346 347 348 349 350 354 360 3 4 4 3 4 9 13 15 15 15 16 20 27 34 36 40 47 49 45 41 42 44 43 37 29 27 18 355 348 5 15 1 360 4 3 5 11 13 10 10 11 9 4 1 358 354 351 346 338 329 322 294 222 198 190 187 187
346 351 343 335 335 338 337 337 338 340 340 340 340 341 340 340 341 343 344 345 346 346 347 350 353 357 0 1 0 1 3 4 6 11 16 18 19 19 19 20 24 32 37 38 40 46 48 45 40 36 32 24 15 5 351 345 352 7 14 359 355 360 4 8 12 12 9 10 15 17 17 14 11 9 8 7 5 359 348 332 185 175 176 177 176
359 1 352 340 335 337 338 337 337 340 341 341 341 342 341 339 341 344 346 345 345 346 348 351 358 3 3 359 358 0 3 5 9 14 18 20 20 22 23 23 23 27 31 31 31 35 37 37 35 31 25 17 7 357 354 2 11 11 355 346 347 352 0 10 15 14 12 14 20 24 26 28 29 29 29 33 38 45 57 96 140 155 163 165 165